Latrobe, PA

7:54 AM EDT on August 19, 2019 (GMT -0400)
Arnold Palmer Regional

Weather History for KLBE - May, 2019

Change the Weather History Date:

Monday, May 6, 2019

  Actual Average Record
Temperature  
Mean Temperature 60 °F -  
Max Temperature 71 °F 69 °F 84 °F (2000)
Min Temperature 50 °F 46 °F 33 °F (2004)
Degree Days  
Heating Degree Days 4    
Growing Degree Days 10 (Base 50)    
Moisture  
Dew Point 52 °F    
Average Humidity 82    
Maximum Humidity 100    
Minimum Humidity 35    
Precipitation  
Precipitation 0.00 in - - ()
Sea Level Pressure  
Sea Level Pressure 30.01 in    
Wind  
Wind Speed 3 mph (SW)    
Max Wind Speed 9 mph    
Max Gust Speed -    
Visibility 7 miles    
Events Fog    
Averages and records for this station are not official NWS values.
T = Trace of Precipitation, MM = Missing Value Source: NWS Daily Summary

Daily Weather History Graph

Daily Weather History Graph

Search for Another Location

Airport or City:

Astronomy

May. 06, 2019 Rise Set
Actual Time 6:11 AM EDT 8:17 PM EDT
Civil Twilight 5:41 AM EDT 8:47 PM EDT
Nautical Twilight 5:04 AM EDT 9:24 PM EDT
Astronomical Twilight 4:24 AM EDT 10:04 PM EDT
Moon 7:32 AM EDT (5/6) 10:13 PM EDT (5/6)
Length of Visible Light 15h 06m
Length of Day
14h 06m
Waxing Crescent, 3% of the Moon is Illuminated
May 6
Waxing Crescent
May 11
First Quarter
May 18
Full
May 26
Last Quarter
Jun 3
New

Hourly Weather History & Observations

Time (EDT) Temp. Dew Point Humidity Pressure Visibility Wind Dir Wind Speed Gust Speed Precip Events Conditions
12:15 AM 57.2 °F 57.2 °F 100% 29.90 in 2.0 mi SSW 3.5 mph - N/A   Overcast
12:35 AM 57.2 °F 57.2 °F 100% 29.91 in 3.0 mi SSW 5.8 mph - N/A   Overcast
12:55 AM 57.2 °F 57.2 °F 100% 29.92 in 3.0 mi SW 5.8 mph - N/A   Overcast
1:15 AM 55.4 °F 55.4 °F 100% 29.92 in 3.0 mi SSW 5.8 mph - N/A   Overcast
1:35 AM 55.4 °F 55.4 °F 100% 29.92 in 1.0 mi SW 5.8 mph - N/A   Overcast
1:55 AM 55.4 °F 55.4 °F 100% 29.92 in 0.2 mi SW 4.6 mph - N/A Fog Fog
2:15 AM 55.4 °F 55.4 °F 100% 29.92 in 0.2 mi SSW 4.6 mph - N/A Fog Fog
2:35 AM 55.4 °F 55.4 °F 100% 29.92 in 0.5 mi Calm Calm - N/A Fog Fog
2:55 AM 53.6 °F 53.6 °F 100% 29.92 in 0.2 mi Calm Calm - N/A Fog Fog
3:15 AM 53.6 °F 53.6 °F 100% 29.93 in 0.2 mi SSW 5.8 mph - N/A Fog Fog
3:35 AM 53.6 °F 53.6 °F 100% 29.93 in 0.2 mi SSW 4.6 mph - N/A Fog Fog
3:55 AM 51.8 °F 51.8 °F 100% 29.93 in 0.2 mi SSW 4.6 mph - N/A Fog Fog
4:15 AM 51.8 °F 51.8 °F 100% 29.94 in 0.2 mi Calm Calm - N/A Fog Fog
4:35 AM 51.8 °F 51.8 °F 100% 29.94 in 0.2 mi Calm Calm - N/A Fog Fog
4:55 AM 51.8 °F 51.8 °F 100% 29.95 in 0.2 mi Calm Calm - N/A Fog Fog
5:15 AM 51.8 °F 51.8 °F 100% 29.96 in 0.2 mi Calm Calm - N/A Fog Fog
5:55 AM 50.0 °F 50.0 °F 100% 29.99 in 0.2 mi Calm Calm - N/A Fog Fog
6:53 AM 50.0 °F 50.0 °F 100% 30.00 in 0.2 mi Calm Calm - N/A Fog Fog
7:53 AM 51.8 °F 51.8 °F 100% 30.03 in 10.0 mi Calm Calm - N/A   Clear
8:53 AM 55.4 °F 55.4 °F 100% 30.05 in 10.0 mi SW 9.2 mph - N/A   Clear
9:53 AM 57.2 °F 55.4 °F 94% 30.07 in 10.0 mi SSW 6.9 mph - N/A   Clear
10:53 AM 60.8 °F 55.4 °F 82% 30.08 in 10.0 mi Calm Calm - N/A   Mostly Cloudy
11:53 AM 62.6 °F 53.6 °F 72% 30.07 in 10.0 mi Calm Calm - N/A   Mostly Cloudy
12:50 PM 64.4 °F 48.2 °F 56% 30.06 in 10.0 mi Calm Calm - N/A   Scattered Clouds
1:50 PM 66.2 °F 46.4 °F 49% 30.06 in 10.0 mi North 9.2 mph - N/A   Scattered Clouds
2:50 PM 69.8 °F 46.4 °F 43% 30.05 in 10.0 mi WNW 5.8 mph - N/A   Scattered Clouds
3:50 PM 69.8 °F 46.4 °F 43% 30.05 in 10.0 mi West 5.8 mph - N/A   Clear
4:47 PM 71.6 °F 44.6 °F 38% 30.04 in 20.0 mi Variable 4.6 mph - N/A   Partly Cloudy
5:47 PM 71.6 °F 42.8 °F 35% 30.05 in 20.0 mi WSW 8.1 mph - N/A   Mostly Cloudy
6:47 PM 69.8 °F 46.4 °F 43% 30.05 in 20.0 mi WSW 6.9 mph - N/A   Scattered Clouds
7:47 PM 66.2 °F 48.2 °F 52% 30.06 in 20.0 mi SSW 6.9 mph - N/A   Scattered Clouds
8:47 PM 64.4 °F 50.0 °F 59% 30.07 in 20.0 mi Variable 5.8 mph - N/A   Scattered Clouds
9:47 PM 57.2 °F 50.0 °F 77% 30.10 in 20.0 mi Calm Calm - N/A   Clear
10:15 PM 59.0 °F 50.0 °F 72% 30.11 in 10.0 mi Calm Calm - N/A   Clear
10:35 PM 57.2 °F 50.0 °F 77% 30.11 in 10.0 mi Calm Calm - N/A   Clear
10:55 PM 57.2 °F 50.0 °F 77% 30.11 in 10.0 mi Calm Calm - N/A   Clear
11:15 PM 59.0 °F 48.2 °F 67% 30.10 in 10.0 mi Calm Calm - N/A   Clear
11:35 PM 53.6 °F 50.0 °F 88% 30.11 in 10.0 mi Calm Calm - N/A   Clear
11:55 PM 55.4 °F 51.8 °F 88% 30.11 in 10.0 mi Calm Calm - N/A   Clear